Location: Passau
(48.5830°N, 13.4830°E)
Time: 06:45:20
(UTC+02:00)

Vanguard 1 - Pass Details

Date: 01 August 2021
Orbit: 652 x 3831 km, 34.3° (Epoch: 16 September)

Event Time Altitude Azimuth Distance (km) Brightness Sun altitude
Rises 15:10:56 0° 254° (WSW) 3,683 13.6 51.0°
Reaches altitude 10° 15:13:33 10° 242° (WSW) 3,016 13.4 50.7°
Maximum altitude 15:19:41 27° 187° (S) 2,638 13.2 49.9°
Drops below altitude 10° 15:29:19 10° 136° (SE) 4,858 13.7 48.6°
Sets 15:35:00 0° 127° (SE) 6,454 14.1 47.9°
